Flag Weather past 2 weeks in Ankara, Turkey

Now
48 °F

Sprinkles. Partly cloudy.


Feels Like: 46 °F
Forecast: 42 / 55 °F
Wind: 5 mph from South

Location: Ankara / Esenboga

Current Time: Oct 31, 2014 at 7:26:48 PM

Latest Report: Oct 31, 2014 at 6:50 PM


Visibility: N/A

Pressure: 29.98 "Hg

Humidity: 94%

Dew point: 46 °F

Location of AnkaraLocation

Historic Weather in Ankara — Graph

°F

Ankara temperature yesterday

Maximum temperature yesterday: 57 °F (at 12:50 PM)
Minimum temperature yesterday: 46 °F (at 9:20 PM)
Average temperature yesterday: 51 °F

Past Weeks' High & Low Weather Summary

 TemperatureHumidityPressure
High68 °F (Oct 22, 2:20 PM)100% (Oct 17, 1:50 AM)30.27 "Hg (Oct 17, 1:50 AM)
Low28 °F (Oct 20, 3:50 AM)22% (Oct 21, 2:50 PM)29.89 "Hg (Oct 18, 12:50 PM)
Average51 °F78%30.05 "Hg
* Reported Oct 16 7:20 PM — Oct 31 6:20 PM, Ankara, Weather by CustomWeather, © 2014

Note: Actual official high and low records may vary slightly from our data, if they occured in-between our weather recording intervals... More about our weather records

Advertising

Ankara weather history for previous 24 hours

 ConditionsComfort  
Time TempWeatherWind HumidityBarometerVisibility
6:20 PM
Oct 31
48 °FSprinkles. Passing clouds.5 mph94%29.98 "HgN/A
5:50 PM48 °FSprinkles. Passing clouds.7 mph87%29.98 "HgN/A
5:20 PM46 °FSprinkles. Passing clouds.5 mph100%29.98 "HgN/A
4:50 PM46 °FSprinkles. Partly cloudy.5 mph93%29.95 "Hg6 mi
4:20 PM46 °FSprinkles. Broken clouds.6 mph100%29.95 "Hg6 mi
3:50 PM48 °FSprinkles. Broken clouds.5 mph94%29.95 "Hg6 mi
3:20 PM48 °FRain showers. Broken clouds.2 mph94%29.95 "Hg4 mi
3:00 PM48 °FRain showers. Broken clouds.5 mph87%29.95 "Hg4 mi
2:20 PM48 °FRain showers. Broken clouds.9 mph94%29.95 "Hg5 mi
1:56 PM50 °FRain showers. Broken clouds.7 mph88%29.95 "Hg5 mi
1:20 PM54 °FBroken clouds.5 mph77%29.92 "HgN/A
12:50 PM54 °FBroken clouds.6 mph77%29.95 "HgN/A
12:20 PM52 °FBroken clouds.6 mph82%29.95 "HgN/A
11:50 AM52 °FBroken clouds.7 mph82%29.95 "HgN/A
11:20 AM52 °FBroken clouds.6 mph82%29.95 "HgN/A
10:50 AM50 °FSprinkles. Broken clouds.8 mph82%29.98 "HgN/A
10:20 AM50 °FSprinkles. Broken clouds.6 mph88%29.98 "HgN/A
9:50 AM50 °FSprinkles. Broken clouds.7 mph88%29.98 "HgN/A
9:20 AM48 °FSprinkles. Broken clouds.7 mph94%29.98 "Hg6 mi
8:50 AM48 °FSprinkles. Broken clouds.6 mph94%29.98 "Hg5 mi
8:20 AM48 °FSprinkles. Broken clouds.5 mph94%29.98 "HgN/A
7:50 AM48 °FSprinkles. Broken clouds.6 mph94%29.98 "HgN/A
7:20 AM48 °FSprinkles. Broken clouds.6 mph94%29.95 "HgN/A
7:03 AM48 °FSprinkles. Broken clouds.5 mph94%29.95 "HgN/A
6:50 AM48 °FBroken clouds.5 mph94%29.95 "HgN/A
6:20 AM48 °FPartly sunny.5 mph87%29.95 "HgN/A
5:50 AM48 °FPartly cloudy.5 mph87%29.95 "HgN/A
5:20 AM48 °FPartly cloudy.3 mph87%29.95 "HgN/A
4:50 AM48 °FSprinkles. Partly cloudy.5 mph87%29.95 "HgN/A
4:20 AM48 °FPassing clouds.3 mph87%29.95 "Hg4 mi
3:50 AM48 °FFog.2 mph94%29.95 "Hg3 mi
3:20 AM48 °FFog.3 mph94%29.95 "Hg3 mi
2:50 AM48 °FFog.6 mph94%29.95 "Hg3 mi
2:20 AM48 °FFog.5 mph94%29.95 "Hg3 mi
1:50 AM50 °FFog.3 mph88%29.95 "Hg3 mi
1:20 AM48 °FFog.2 mph94%29.95 "Hg3 mi
12:50 AM48 °FFog.2 mph94%29.95 "Hg3 mi
12:20 AM48 °FPassing clouds.2 mph94%29.95 "Hg4 mi
11:50 PM
Oct 30
48 °FPassing clouds.2 mph94%29.95 "Hg4 mi
11:20 PM48 °FPassing clouds.3 mph94%29.95 "Hg5 mi
10:50 PM48 °FPassing clouds.2 mph94%29.95 "Hg5 mi
10:20 PM46 °FPassing clouds.2 mph100%29.95 "Hg5 mi
9:50 PM48 °FPassing clouds.1 mph94%29.98 "Hg5 mi
9:20 PM46 °FPassing clouds.2 mph93%29.98 "Hg5 mi
8:50 PM48 °FPassing clouds.2 mph94%29.98 "HgN/A
8:20 PM48 °FPassing clouds.1 mph94%29.95 "HgN/A
7:50 PM50 °FPartly cloudy.5 mph88%29.95 "HgN/A
7:20 PM50 °FPartly cloudy.5 mph88%29.95 "HgN/A
Weather by CustomWeather, © 2014

See weather overviewHow to use our weather pages